Weather History for Burnet, TX

Change the Weather History Date:

Friday, October 28, 2011

  Actual Average Record
Temperature  
Mean Temperature 56 °F -  
Max Temperature 63 °F 72 °F 82 °F (2004)
Min Temperature 48 °F 54 °F 37 °F (2008)
Degree Days  
Heating Degree Days 10    
Growing Degree Days 6 (Base 50)    
Moisture  
Dew Point 38 °F    
Average Humidity 60    
Maximum Humidity 77    
Minimum Humidity 38    
Precipitation  
Precipitation 0.00 in - - ()
Sea Level Pressure  
Sea Level Pressure 30.24 in    
Wind  
Wind Speed 11 mph (North)    
Max Wind Speed 17 mph    
Max Gust Speed 25 mph    
Visibility 10 miles    
Events      
Averages and records for this station are not official NWS values.
T = Trace of Precipitation, MM = Missing Value Source: NWS Daily Summary

Daily Weather History Graph

Daily Weather History Graph

Search for Another Location

Airport:

Trip Planner

Search our weather history database for the weather conditions in past years. The results will help you decide how hot, cold, wet, or windy it might be!

Date:

Astronomy

Oct. 28, 2011 Rise Set
Actual Time 7:44 AM CDT 6:48 PM CDT
Civil Twilight 7:19 AM CDT 7:13 PM CDT
Nautical Twilight 6:51 AM CDT 7:41 PM CDT
Astronomical Twilight 6:23 AM CDT 8:09 PM CDT
Moon 9:50 AM CDT (10/28) 8:24 PM CDT (10/28)
Length of Visible Light 11h 53m
Length of Day
11h 03m
Waxing Crescent, 5% of the Moon is Illuminated
Oct 28
Waxing Crescent
Nov 2
First Quarter
Nov 10
Full
Nov 18
Last Quarter
Nov 25
New

Hourly Weather History & Observations

Time (CDT) Temp. Dew Point Humidity Pressure Visibility Wind Dir Wind Speed Gust Speed Precip Events Conditions
12:53 AM 50.0 °F 42.1 °F 74% 30.14 in 10.0 mi NNW 11.5 mph 20.7 mph N/A   Overcast
1:15 AM 50.0 °F 42.8 °F 76% 30.15 in 10.0 mi NNW 17.3 mph 24.2 mph N/A   Overcast
1:53 AM 48.9 °F 42.1 °F 77% 30.14 in 10.0 mi NNW 11.5 mph 19.6 mph N/A   Overcast
2:24 AM 48.2 °F 41.0 °F 76% 30.15 in 10.0 mi North 10.4 mph 19.6 mph N/A   Overcast
2:53 AM 48.9 °F 39.9 °F 71% 30.14 in 10.0 mi North 13.8 mph 23.0 mph N/A   Overcast
3:53 AM 48.9 °F 41.0 °F 74% 30.15 in 10.0 mi North 11.5 mph 25.3 mph N/A   Overcast
4:53 AM 48.9 °F 41.0 °F 74% 30.17 in 10.0 mi North 12.7 mph 20.7 mph N/A   Overcast
5:46 AM 48.2 °F 39.2 °F 71% 30.19 in 10.0 mi North 8.1 mph - N/A   Mostly Cloudy
5:53 AM 48.9 °F 39.9 °F 71% 30.18 in 10.0 mi North 11.5 mph 19.6 mph N/A   Overcast
7:53 AM 48.9 °F 39.9 °F 71% 30.22 in 10.0 mi North 9.2 mph 18.4 mph N/A   Unknown
8:18 AM 48.2 °F 39.2 °F 71% 30.25 in 10.0 mi North 8.1 mph 18.4 mph N/A   Overcast
8:53 AM 50.0 °F 39.9 °F 68% 30.26 in 10.0 mi North 11.5 mph 18.4 mph N/A   Mostly Cloudy
9:53 AM 51.1 °F 39.9 °F 66% 30.27 in 10.0 mi North 16.1 mph 23.0 mph N/A   Partly Cloudy
10:42 AM 53.6 °F 39.2 °F 58% 30.29 in 10.0 mi North 9.2 mph 24.2 mph N/A   Scattered Clouds
10:53 AM 53.1 °F 39.0 °F 59% 30.29 in 10.0 mi NNE 15.0 mph 25.3 mph N/A   Mostly Cloudy
11:03 AM 53.6 °F 39.2 °F 58% 30.30 in 10.0 mi North 12.7 mph 24.2 mph N/A   Mostly Cloudy
11:42 AM 55.4 °F 39.2 °F 54% 30.31 in 10.0 mi NNE 15.0 mph 21.9 mph N/A   Mostly Cloudy
11:53 AM 54.0 °F 39.0 °F 57% 30.30 in 10.0 mi North 13.8 mph 19.6 mph N/A   Mostly Cloudy
12:53 PM 55.9 °F 37.9 °F 51% 30.28 in 10.0 mi NNE 13.8 mph 24.2 mph N/A   Mostly Cloudy
1:53 PM 57.0 °F 37.9 °F 49% 30.25 in 10.0 mi North 12.7 mph 20.7 mph N/A   Overcast
2:53 PM 59.0 °F 37.0 °F 44% 30.25 in 10.0 mi North 11.5 mph 23.0 mph N/A   Overcast
3:53 PM 63.0 °F 37.0 °F 38% 30.22 in 10.0 mi NNW 13.8 mph 20.7 mph N/A   Scattered Clouds
4:53 PM 62.1 °F 36.0 °F 38% 30.22 in 10.0 mi North 10.4 mph 21.9 mph N/A   Clear
5:53 PM 61.0 °F 35.1 °F 38% 30.23 in 10.0 mi North 10.4 mph 18.4 mph N/A   Clear
6:53 PM 57.0 °F 34.0 °F 42% 30.25 in 10.0 mi North 4.6 mph - N/A   Clear
7:53 PM 53.1 °F 35.1 °F 50% 30.27 in 10.0 mi NNW 5.8 mph - N/A   Clear
8:53 PM 52.0 °F 35.1 °F 53% 30.29 in 10.0 mi NNW 5.8 mph - N/A   Clear
9:53 PM 50.0 °F 35.1 °F 57% 30.30 in 10.0 mi North 3.5 mph - N/A   Clear
10:53 PM 48.9 °F 34.0 °F 56% 30.32 in 10.0 mi North 3.5 mph - N/A   Clear
11:53 PM 48.0 °F 34.0 °F 58% 30.31 in 10.0 mi North 4.6 mph - N/A   Clear